Regional Weather Roundup
Issued by NWS

Home | Current Version | Previous Version | Graphics & Text | Print | Product List | Glossary On
Versions: 1 2 3 4 5 6 7 8 9 10 11 12 13 14 15 16 17 18 19 20 21 22 23 24 25 26 27 28 29 30 31 32 33 34 35 36 37 38 39 40 41 42 43 44 45 46 47 48 49 50
000
ASUS43 KLOT 301806
RWRIL

ILLINOIS REGIONAL WEATHER ROUNDUP
NATIONAL WEATHER SERVICE CHICAGO/ROMEOVILLE IL
1200 PM CST FRI JAN 30 2015

NOTE: "FAIR" INDICATES FEW OR NO CLOUDS BELOW 12,000 FEET WITH NO
SIGNIFICANT WEATHER AND/OR OBSTRUCTIONS TO VISIBILITY.

* THESE STATIONS ARE NOT UNDER NWS QUALITY CONTROL. THEY ALSO MAY NOT
  REPORT WEATHER SUCH AS PRECIPITATION OR FOG.

ILZ001-002-007-009-015-016-024-301900-
NORTHWEST ILLINOIS

CITY           SKY/WX    TMP DP  RH WIND       PRES   REMARKS
MOLINE         SUNNY     26  12  55 CALM      30.54S
6HR MIN TEMP:  19; 6HR MAX TEMP:  27;

STERLING*      SUNNY     25  12  58 NE3       30.54F
SAVANNA*       SUNNY     26  11  52 CALM      30.54F
$$

ILZ003-004-008-010-011-017-018-301900-
NORTH CENTRAL ILLINOIS

CITY           SKY/WX    TMP DP  RH WIND       PRES   REMARKS
ROCKFORD       PTSUNNY   25   8  48 W5        30.54F WCI  19
6HR MIN TEMP:  17; 6HR MAX TEMP:  27;

FREEPORT*      SUNNY     23  10  56 CALM      30.54F
ROCHELLE*      SUNNY     24  13  60 CALM      30.53F
DE KALB*       SUNNY     23   9  55 NE5       30.51F WCI  16
PERU*          SUNNY     27  15  59 NE3       30.54F
$$

ILZ005-006-012>014-019>023-301900-
NORTHEAST ILLINOIS

CITY           SKY/WX    TMP DP  RH WIND       PRES   REMARKS
CHICAGO-OHARE  MOSUNNY   25   8  48 VRB6      30.51F WCI  18
6HR MIN TEMP:  19; 6HR MAX TEMP:  27;

CHICAGO-MIDWAY MOSUNNY   31   9  39 N3        30.51F
6HR MIN TEMP:  23; 6HR MAX TEMP:  31;

AURORA         SUNNY     27  10  49 NW5       30.51F WCI  22
6HR MIN TEMP:  19; 6HR MAX TEMP:  27;

LANSING*       MOSUNNY   29  14  53 NE8       30.51F WCI  21
JOLIET*        SUNNY     27   9  46 NW3       30.52F
WAUKEGAN       SUNNY     25   7  46 W5        30.50F WCI  19
6HR MIN TEMP:  17; 6HR MAX TEMP:  26;

DUPAGE AIRPORT SUNNY     27   8  44 CALM      30.50F
6HR MIN TEMP:  17; 6HR MAX TEMP:  28; 6HR PCP: TRACE;

KANKAKEE*      SUNNY     29  14  53 N5        30.52F WCI  24
WHEELING       SUNNY     26   7  44 VRB5      30.52F WCI  20
6HR MIN TEMP:  19; 6HR MAX TEMP:  27;

MORRIS*        SUNNY     28  15  59 W5        30.51F WCI  22
ROMEOVILLE*    SUNNY     28   8  44 CALM      30.51F
NORTHERLY ISL    N/A     26  16  65 MISG        N/A
$$

LMZ740>746-301900-
SOUTHERN LAKE MICHIGAN

STATION/POSITION SKY/WX   TEMP    WIND        PRES    VSBY  WAVE
                          AIR SEA DIR/SP/G                  HT/PER
                          (F)     (DEG/KT/KT) (MB)    (MI)  (FT/S)
WAUKEGAN HARBOR            23      40/  5/ 11   N/A
HARRISON CRIB              23     330/  9/ 11   N/A
BURNHAM HARBOR             27      10/  9/ 11   N/A
CALUMET HARBOR             25     360/  9/ 12   N/A
MICHIGAN CITY              25     350/ 12/ 15   N/A
$$

ILZ025>027-034>036-040-047-049-050-058-095>099-301900-
WEST-CENTRAL ILLINOIS

CITY           SKY/WX    TMP DP  RH WIND       PRES   REMARKS
QUINCY         SUNNY     30  16  56 NW3       30.53F
GALESBURG*     SUNNY     28  17  62 CALM      30.53F
MACOMB*        SUNNY     28  18  65 CALM      30.55F
JACKSONVILLE*  SUNNY     33  18  55 CALM      30.53F
PITTSFIELD*    SUNNY     33  18  54 CALM      30.55S
$$

ILZ028>032-037-038-041>044-048-051>054-059>061-301900-
CENTRAL ILLINOIS

CITY           SKY/WX    TMP DP  RH WIND       PRES   REMARKS
PONTIAC        SUNNY     30  19  61 CALM      30.52F
BLOOMINGTON    MOSUNNY   31  19  61 CALM      30.52F
DECATUR        SUNNY     32  17  54 CALM      30.52F
PEORIA         SUNNY     33  16  49 W5        30.52F WCI  29
6HR MIN TEMP:  23; 6HR MAX TEMP:  33;

LACON*         SUNNY     29  14  53 CALM      30.53F
LINCOLN*       SUNNY     33  21  62 CALM      30.54F
SPRINGFIELD    SUNNY     33  18  53 CALM      30.53F
6HR MIN TEMP:  24; 6HR MAX TEMP:  34;

TAYLORVILLE    SUNNY     32  21  64 N6        30.54F WCI  26
$$

ILZ033-039-045-046-055>057-062-063-301900-
EAST-CENTRAL ILLINOIS

CITY           SKY/WX    TMP DP  RH WIND       PRES   REMARKS
CHAMPAIGN      SUNNY     32  15  49 VRB6      30.51F WCI  26
DANVILLE*      MOSUNNY   30  16  56 N7        30.48F WCI  23
RANTOUL*       SUNNY     32  16  50 NE3       30.51F
MATTOON        SUNNY     32  18  56 NE6       30.50F WCI  26
PARIS*         SUNNY     32  18  55 N6        30.51F WCI  27
$$

ILZ079-100>102-301900-
SOUTHWEST ILLINOIS

CITY           SKY/WX    TMP DP  RH WIND       PRES   REMARKS
ALTON          SUNNY     34  16  47 N6        30.54F WCI  29
BELLEVILLE     SUNNY     36  21  54 VRB3      30.53F
CAHOKIA*       SUNNY     36  19  50 CALM      30.54F
SPARTA*        SUNNY     34  21  59 N5        30.55F WCI  30
$$

ILZ064>066-069>071-074>076-080>082-084>086-088>090-092>094-301900-
SOUTH-CENTRAL ILLINOIS

CITY           SKY/WX    TMP DP  RH WIND       PRES   REMARKS
CARBONDALE     SUNNY     37  20  50 N6        30.53F WCI  32
6HR MIN TEMP:  31; 6HR MAX TEMP:  37;

CAIRO*         SUNNY     41  23  48 NE8       30.52F
EFFINGHAM*     SUNNY     33  17  50 N8        30.53F WCI  27
MARION         SUNNY     37  21  52 NW6       30.54F WCI  33
MT. VERNON     SUNNY     36  21  55 CALM      30.53F
CENTRALIA*     SUNNY     35  20  56 N6        30.52F WCI  29
SALEM*         MOSUNNY   36  23  59 NE3       30.53F
METROPOLIS*    SUNNY     40  24  53 SW3       30.50F
$$

ILZ067-068-072-073-078-083-087-091-301900-
SOUTHEAST ILLINOIS

CITY           SKY/WX    TMP DP  RH WIND       PRES   REMARKS
LAWRENCEVILLE  MOSUNNY   34  20  56 NW7       30.52F WCI  28
FLORA*         SUNNY     34  20  57 N7        30.53F WCI  28
FAIRFIELD*     MOSUNNY   36  23  59 NE8       30.51F WCI  29
HARRISBURG*    SUNNY     38  24  57 N7        30.53F WCI  33
ROBINSON*      MOSUNNY   34  20  57 N9        30.53F WCI  26
CARMI*         MOSUNNY   38  25  58 NW3       30.51F
$$

ABBREVIATIONS USED IN REMARKS
   TC - TEMPERATURE IN CELSIUS
  WCI - WIND CHILL INDEX
   HX - HEAT INDEX
  VSB - VISIBILITY
$$



USA.gov is the U.S. government's official web portal to all federal, state and local government web resources and services.